| time (UTC) | temp C | wind direction | speed KPH | gust KPH | rain 1hr cm | rain 24hr cm | rain mn cm | humidity % | barometer mb |
| 20260504001551 | 11 | 0 | 0.0 | 9.7 | 0.00 | 0.00 | 0.00 | 49 | 1011.6 |
| 20260504000114 | 12 | 93 | 1.6 | 11.3 | 0.00 | 0.00 | 0.00 | 47 | 1011.5 |
| 20260503234555 | 12 | 174 | 1.6 | 9.7 | 0.00 | 0.00 | 0.00 | 46 | 1011.5 |
| 20260503233054 | 12 | 194 | 1.6 | 11.3 | 0.00 | 0.00 | 0.00 | 48 | 1011.6 |
| 20260503231553 | 12 | 198 | 1.6 | 9.7 | 0.00 | 0.00 | 0.00 | 46 | 1011.6 |
| 20260503224556 | 12 | 173 | 0.0 | 9.7 | 0.00 | 0.00 | 0.00 | 46 | 1011.5 |
| 20260503223058 | 13 | 204 | 1.6 | 16.1 | 0.00 | 0.00 | 0.00 | 46 | 1011.5 |
| 20260503221553 | 13 | 284 | 4.8 | 16.1 | 0.00 | 0.00 | 0.00 | 44 | 1011.5 |
| 20260503220121 | 13 | 0 | 4.8 | 16.1 | 0.00 | 0.00 | 0.00 | 43 | 1011.5 |
| 20260503214554 | 13 | 216 | 3.2 | 17.7 | 0.00 | 0.00 | 0.00 | 47 | 1011.5 |
| 20260503213057 | 13 | 263 | 1.6 | 9.7 | 0.00 | 0.00 | 0.00 | 42 | 1011.2 |
| 20260503211559 | 13 | 275 | 1.6 | 20.9 | 0.00 | 0.00 | 0.00 | 44 | 1011.3 |
| 20260503210059 | 13 | 320 | 3.2 | 14.5 | 0.00 | 0.00 | 0.00 | 43 | 1011.2 |
| 20260503204604 | 13 | 225 | 1.6 | 14.5 | 0.00 | 0.00 | 0.00 | 45 | 1011.6 |
| 20260503203100 | 13 | 245 | 4.8 | 16.1 | 0.00 | 0.00 | 0.00 | 42 | 1011.7 |
| 20260503201554 | 13 | 147 | 4.8 | 17.7 | 0.00 | 0.00 | 0.00 | 43 | 1011.7 |
| 20260503194559 | 13 | 202 | 6.4 | 17.7 | 0.00 | 0.00 | 0.00 | 43 | 1012.2 |
| 20260503193100 | 13 | 188 | 4.8 | 17.7 | 0.00 | 0.00 | 0.00 | 41 | 1012.4 |
| 20260503191558 | 12 | 136 | 4.8 | 20.9 | 0.00 | 0.00 | 0.00 | 42 | 1012.6 |
| 20260503190055 | 12 | 252 | 4.8 | 12.9 | 0.00 | 0.00 | 0.00 | 43 | 1012.8 |
| 20260503184604 | 13 | 240 | 3.2 | 14.5 | 0.00 | 0.00 | 0.00 | 43 | 1013.1 |
| 20260503183055 | 12 | 350 | 4.8 | 16.1 | 0.00 | 0.00 | 0.00 | 44 | 1013.5 |
| 20260503181554 | 12 | 237 | 3.2 | 14.5 | 0.00 | 0.00 | 0.00 | 42 | 1013.5 |
| 20260503180106 | 12 | 5 | 6.4 | 17.7 | 0.00 | 0.00 | 0.00 | 44 | 1013.5 |
| 20260503174555 | 12 | 118 | 4.8 | 27.4 | 0.00 | 0.00 | 0.00 | 43 | 1013.7 |
| 20260503173106 | 12 | 286 | 4.8 | 14.5 | 0.00 | 0.00 | 0.00 | 44 | 1013.6 |
| 20260503171554 | 12 | 163 | 1.6 | 12.9 | 0.00 | 0.00 | 0.00 | 45 | 1013.9 |
| 20260503081554 | -3 | 0 | 0.0 | 0.0 | 0.00 | 0.05 | 0.00 | 90 | 1015.2 |
| 20260503071557 | -3 | 0 | 0.0 | 0.0 | 0.00 | 0.05 | 0.00 | 90 | 1015.1 |
| 20260503060113 | -2 | 0 | 0.0 | 0.0 | 0.00 | 0.05 | 0.00 | 89 | 1015.4 |
| 20260503054614 | -2 | 0 | 0.0 | 0.0 | 0.00 | 0.05 | 0.00 | 89 | 1015.4 |
| 20260503053054 | -2 | 0 | 0.0 | 0.0 | 0.00 | 0.05 | 0.00 | 89 | 1015.4 |
| 20260503051552 | -2 | 0 | 0.0 | 0.0 | 0.00 | 0.05 | 0.00 | 89 | 1015.4 |
| 20260503050055 | -2 | 0 | 0.0 | 0.0 | 0.00 | 0.05 | 0.00 | 88 | 1015.6 |
| 20260503044552 | -2 | 0 | 0.0 | 0.0 | 0.00 | 0.05 | 0.00 | 87 | 1015.5 |
| 20260503043053 | -1 | 0 | 0.0 | 0.0 | 0.00 | 0.05 | 0.00 | 87 | 1015.5 |
| 20260503041556 | -1 | 0 | 0.0 | 0.0 | 0.00 | 0.05 | 0.00 | 86 | 1015.5 |
| 20260503040059 | -1 | 0 | 0.0 | 0.0 | 0.00 | 0.05 | 0.00 | 85 | 1015.5 |
| 20260503034553 | -1 | 0 | 0.0 | 0.0 | 0.00 | 0.05 | 0.05 | 85 | 1015.6 |
| 20260503033053 | 0 | 0 | 0.0 | 0.0 | 0.00 | 0.05 | 0.05 | 84 | 1015.5 |
| 20260503031552 | 0 | 0 | 0.0 | 0.0 | 0.00 | 0.05 | 0.05 | 84 | 1015.7 |
| 20260503024555 | 0 | 0 | 0.0 | 0.0 | 0.00 | 0.05 | 0.05 | 81 | 1015.8 |
| 20260503023100 | 0 | 0 | 0.0 | 0.0 | 0.00 | 0.05 | 0.05 | 81 | 1015.9 |
| 20260503021559 | 0 | 0 | 0.0 | 0.0 | 0.00 | 0.05 | 0.05 | 80 | 1016.0 |
| 20260503020058 | 1 | 0 | 0.0 | 0.0 | 0.00 | 0.05 | 0.05 | 79 | 1015.8 |
| 20260503014556 | 1 | 0 | 0.0 | 0.0 | 0.00 | 0.05 | 0.05 | 78 | 1015.8 |
| 20260503013053 | 1 | 0 | 0.0 | 0.0 | 0.00 | 0.05 | 0.05 | 78 | 1015.9 |
| 20260503011557 | 2 | 0 | 0.0 | 0.0 | 0.00 | 0.05 | 0.05 | 75 | 1015.8 |
| 20260503010104 | 2 | 0 | 0.0 | 1.6 | 0.00 | 0.05 | 0.05 | 71 | 1015.6 |
| 20260503004608 | 3 | 130 | 0.0 | 3.2 | 0.00 | 0.05 | 0.05 | 65 | 1015.6 |